Etusivu
METAR-TAF:

METAR-TAF

Lentoasemat :

Scotts Seaplane Base

Crane Lake, Minnesota, Yhdysvallat

Leveyspiiri: 48-15-59N, Pituuspiiri: 092-29-01W, korkeus merenpinnasta: 341 m

Tämänhetkinen sää

Tämä raportti tehtiin 21 minuuttia sitten, kello 10.54 UTC
tyyntä
Lämpötila -21°C
Kosteus 84%
Ilmanpaine 1028 hPa
Näkyvyys: 16.1 km
selkeää

METAR: KCDD 261054Z AUTO 00000KT 10SM CLR M21/M23 A3037 RMK AO2

Aika: 05:15 (11:15 UTC)


TAF: puuttuu

Säähavainnot ja -ennusteet yli 4000 lentoasemalta (METAR- ja TAF-raportit).

Käytössä olevat sääasemat on merkitty karttaan keltaisilla ja punaisilla pisteillä.

Aseta hiiri pisteen päälle nähdäksesi sääaseman nimen.

Klikkaa sitten nähdäksesi säähavainnot ja -ennusteet.

Kartan vaihtaminen: klikkaa mustalla rastilla varustettuja vihreitä pisteitä, niin voit zoomata sisään; viivalla varustettua vihreää pistettä, niin voit zoomata ulos tai vihreitä nuolia, niin pääset viereisille kartoille.


METAR-TAF: